Regional Weather Roundup
Issued by NWS Jackson, KY

Home | Current Version | Previous Version | Graphics & Text | Print | Product List | Glossary On
Versions: 1 2 3 4 5 6 7 8 9 10 11 12 13 14 15 16 17 18 19 20 21 22 23 24 25 26 27 28 29 30 31 32 33 34 35 36 37 38 39 40 41 42 43 44 45 46 47 48 49 50
002
ASUS43 KJKL 191510
RWRJKL

EAST KENTUCKY HOURLY WEATHER ROUNDUP
NATIONAL WEATHER SERVICE JACKSON KY
1000 AM EST SUN FEB 19 2017

NOTE: "FAIR" INDICATES FEW OR NO CLOUDS BELOW 12,000 FEET WITH
NO SIGNIFICANT WEATHER AND/OR OBSTRUCTIONS TO VISIBILITY.

* THESE REPORTS ARE NOT UNDER NWS QUALITY CONTROL AND MAY NOT
  REPORT WEATHER SUCH AS PRECIPITATION AND FOG.

KYZ079-080-083-085-087-088-110-112-115-119-120-191600
...EASTERN KENTUCKY...

CITY           SKY/WX    TMP DP  RH WIND       PRES   REMARKS
JACKSON        CLOUDY    48  44  86 VRB3      30.11R
LONDON         CLOUDY    50  46  86 W5        30.13R
SOMERSET*      CLOUDY    48  46  93 CALM      30.15R
MONTICELLO*    CLOUDY    51  48  89 VRB3      30.15R
WILLIAMSBURG*  CLOUDY    48  48 100 CALM      30.14R
MIDDLESBORO*   CLOUDY    50  49  96 CALM      30.14R
HARLAN APT*    CLOUDY    50  45  81 CALM      30.13R
PIKE CO APT*   CLOUDY    48  48 100 CALM      30.10R
BIG SANDY APT* CLOUDY    49  48  97 W6        30.10R
MOREHEAD APT*  CLOUDY    48  45  87 W5        30.12R
ASHLAND*       CLOUDY    52  46  82 W5        30.08R
$$

KYZ035-036-041-042-044-050-067-078-099-191600
...CENTRAL KENTUCKY...

CITY           SKY/WX    TMP DP  RH WIND       PRES   REMARKS
MT STERLING*   CLOUDY    48  45  87 W6        30.12R
FLEMING/MASON* CLOUDY    48  46  93 W6        30.12R
DANVILLE*      CLOUDY    52  46  82 SW5       30.12S
LEXINGTON      CLOUDY    50  47  89 SW6       30.11R FOG
FRANKFORT      CLOUDY    51  47  86 SW6       30.09R FOG
LOUISVILLE     CLOUDY    53  49  86 SW6       30.11R FOG
LEBANON*       CLOUDY    50  48  93 S3        30.12R FOG
GLASGOW*       CLOUDY    53  52  99 SW3       30.13R
BOWLING GREEN  CLOUDY    52  49  89 CALM      30.13R FOG
$$

KYZ091>093-OHZ055-061-077-WVZ005-015-034-035-042-191600
...SOUTHERN OHIO/WEST VIRGINIA...

CITY           SKY/WX    TMP DP  RH WIND       PRES   REMARKS
COVINGTON      CLOUDY    49  46  90 W7        30.08R
COLUMBUS       CLOUDY    49  44  83 W7        30.05R HAZE
DAYTON         CLOUDY    47  44  90 W8        30.07R FOG
WILMINGTON     CLOUDY    46  45  96 W9        30.06R FOG
HUNTINGTON     CLOUDY    50  46  86 SW6       30.09R
CHARLESTON     CLOUDY    49  46  90 SW7       30.08R
PINEVILLE*     CLOUDY    47  44  88 MISG      30.13R FOG
BECKLEY        CLOUDY    44  43  96 W7        30.07R FOG
BLUEFIELD      CLOUDY    42  41  96 W9        30.07S FOG
LOGAN CO APT*  CLOUDY    48  48 100 CALM      30.08R FOG
$$

VAZ002-007-008-TNZ017-027-036-066-071-191600
...SOUTHWEST VIRGINIA/EAST TENNESSEE...

CITY           SKY/WX    TMP DP  RH WIND       PRES   REMARKS
WISE*          CLOUDY    45  45 100 NW7       30.10S
JONESVILLE*    PTSUNNY   50  48  93 SW3       30.14R
ABINGDON*      CLOUDY    50  48  95 NW5       30.10R
BRISTOL        CLOUDY    51  48  89 SW5       30.11R
MORRISTOWN*    CLOUDY    52  48  87 NW5       30.11R
SEVIERVILLE*   CLOUDY    52  48  87 CALM      30.12R
KNOXVILLE      CLOUDY    52  48  86 SW3       30.12R FOG
LAFOLLETTE*    CLOUDY    52  50  93 CALM      30.17R
OAK RIDGE      CLOUDY    53  49  86 CALM      30.15R
CROSSVILLE     CLOUDY    52  46  80 N9        30.14R
NASHVILLE      CLOUDY    54  49  83 CALM      30.14R
$$

...KEY TO REMARKS...
VSB - VISIBILITY IN MILES
WCI - WIND CHILL INDEX
HX  - HEAT INDEX

$$




USA.gov is the U.S. government's official web portal to all federal, state and local government web resources and services.